DW9945 Weather Reports


time (UTC)temp
F
wind
direction
speed
knots
gust
knots
rain 1hr
in
rain 24hr
in
rain mn
in
humidity
%
barometer
mb
20260505033508 50 46 0.9 2.6 0.00 0.00 0.00 78 1012.6
20260505033019 51 97 0.0 0.0 0.00 0.00 0.00 77 1012.7
20260505032519 51 97 0.0 0.0 0.00 0.00 0.00 76 1012.8
20260505032019 51 97 0.0 0.0 0.00 0.00 0.00 76 1012.8
20260505031018 51 113 0.0 0.0 0.00 0.00 0.00 76 1012.8
20260505030018 50 113 0.0 0.0 0.00 0.00 0.00 76 1012.9
20260505025519 50 113 0.0 2.6 0.00 0.00 0.00 77 1012.8
20260505025007 50 114 1.7 5.2 0.00 0.00 0.00 77 1012.9
20260505024519 49 29 0.0 0.0 0.00 0.00 0.00 77 1012.9
20260505024007 49 283 0.9 2.6 0.00 0.00 0.00 78 1012.9
20260505023519 50 284 0.9 2.6 0.00 0.00 0.00 78 1012.9
20260505023018 50 13 0.0 0.0 0.00 0.00 0.00 77 1012.9
20260505022019 49 13 0.0 0.0 0.00 0.00 0.00 79 1012.9
20260505021518 50 13 0.0 0.0 0.00 0.00 0.00 79 1012.9
20260505021018 50 13 0.0 0.0 0.00 0.00 0.00 80 1013.0
20260505020019 50 13 0.0 0.0 0.00 0.00 0.00 79 1012.9
20260505015518 50 13 0.0 0.0 0.00 0.00 0.00 81 1012.8
20260505015018 51 13 0.0 0.0 0.00 0.00 0.00 80 1012.9
20260505014019 50 13 0.0 0.0 0.00 0.00 0.00 79 1012.9
20260505013519 50 13 0.0 0.0 0.00 0.00 0.00 79 1013.0
20260505013019 50 13 0.0 0.0 0.00 0.00 0.00 79 1013.1
20260505012518 50 13 0.0 0.0 0.00 0.00 0.00 79 1013.1
20260505012018 50 13 0.9 2.6 0.00 0.00 0.00 79 1013.1
20260505011518 50 13 0.9 2.6 0.00 0.00 0.00 80 1013.1
20260505010520 50 25 1.7 2.6 0.00 0.00 0.00 81 1013.2
20260505005007 49 25 0.0 0.0 0.00 0.00 0.00 80 1013.4
20260505004508 49 25 0.9 2.6 0.00 0.00 0.00 80 1013.3
20260505004007 49 25 2.6 2.6 0.00 0.00 0.00 80 1013.4
20260505003508 49 25 2.6 2.6 0.00 0.00 0.00 81 1013.4
20260505003007 48 25 1.7 2.6 0.00 0.00 0.00 81 1013.3
20260505002507 48 25 1.7 2.6 0.00 0.00 0.00 80 1013.2
20260505002008 48 12 1.7 2.6 0.00 0.00 0.00 79 1013.3
20260505001507 48 9 2.6 2.6 0.00 0.00 0.00 80 1013.2
20260505001008 48 13 1.7 2.6 0.00 0.00 0.00 79 1013.2
20260505000507 49 24 0.0 0.0 0.00 0.00 0.00 78 1013.2
20260504235509 50 313 0.0 0.0 0.00 0.00 0.00 76 1013.2
20260504235008 50 313 0.0 0.0 0.00 0.00 0.00 74 1013.2
20260504234508 50 273 0.0 0.0 0.00 0.00 0.00 74 1013.2
20260504234007 50 273 0.0 0.0 0.00 0.00 0.00 74 1013.3
20260504233507 50 273 0.0 0.9 0.00 0.00 0.00 74 1013.3
20260504233008 50 273 0.9 2.6 0.00 0.00 0.00 73 1013.4
20260504232507 51 319 0.0 0.0 0.00 0.00 0.00 73 1013.2
20260504231507 51 319 0.0 0.0 0.00 0.00 0.00 73 1013.1
20260504231007 51 319 0.0 0.0 0.00 0.00 0.00 73 1013.1
20260504230507 51 319 0.0 0.0 0.00 0.00 0.00 73 1013.0
20260504230007 51 319 0.0 0.0 0.00 0.00 0.00 73 1012.9
20260504225507 51 319 0.0 0.0 0.00 0.00 0.00 73 1013.0
20260504225007 51 319 0.0 0.9 0.00 0.00 0.00 72 1013.0
20260504224508 50 319 0.0 0.9 0.00 0.00 0.00 73 1013.1
20260504224008 50 319 0.0 0.0 0.00 0.00 0.00 74 1013.1
20260504223007 50 319 1.7 2.6 0.00 0.00 0.00 75 1013.1
20260504222507 50 319 1.7 2.6 0.00 0.00 0.00 75 1013.1
20260504222007 51 303 1.7 2.6 0.00 0.00 0.00 73 1013.1
20260504221507 52 281 0.0 2.6 0.00 0.00 0.00 72 1013.2
20260504221007 52 281 0.9 2.6 0.00 0.00 0.00 70 1013.2
20260504220507 52 282 1.7 2.6 0.00 0.00 0.00 70 1013.3
20260504220008 52 298 2.6 5.2 0.00 0.00 0.00 71 1013.3
20260504215507 52 288 2.6 4.3 0.00 0.00 0.00 72 1013.3
20260504214008 52 298 0.9 1.7 0.00 0.00 0.00 72 1013.4
20260504213507 52 298 0.0 0.0 0.00 0.00 0.00 72 1013.4
20260504213007 52 298 0.0 0.0 0.00 0.00 0.00 72 1013.3
20260504212507 52 298 0.0 1.7 0.00 0.00 0.00 72 1013.2
20260504212007 52 298 0.9 1.7 0.00 0.00 0.00 71 1013.2
20260504211507 52 298 0.0 0.0 0.00 0.00 0.00 72 1013.1
20260504211007 52 298 0.0 1.7 0.00 0.00 0.00 72 1013.1
20260504210507 52 298 1.7 2.6 0.00 0.00 0.00 72 1013.2
20260504210008 53 298 0.0 0.0 0.00 0.00 0.00 70 1013.1
20260504205507 53 298 0.0 0.0 0.00 0.00 0.00 70 1013.0
20260504205007 53 298 0.0 1.7 0.00 0.00 0.00 70 1013.0
20260504204507 53 298 1.7 2.6 0.00 0.00 0.00 70 1013.0
20260504204007 53 298 2.6 2.6 0.00 0.00 0.00 69 1013.0
20260504203507 53 309 2.6 4.3 0.00 0.00 0.00 70 1013.0
20260504203008 53 301 3.5 4.3 0.00 0.00 0.00 69 1012.9
20260504202507 54 307 4.3 4.3 0.00 0.00 0.00 69 1012.9
20260504202006 55 304 3.5 7.0 0.00 0.00 0.00 66 1012.9
20260504201508 55 290 4.3 7.8 0.00 0.00 0.00 66 1012.8
20260504201007 55 284 5.2 8.7 0.00 0.00 0.00 66 1012.8
20260504200507 54 286 5.2 7.8 0.00 0.00 0.00 67 1012.8
20260504200008 54 284 2.6 6.1 0.00 0.00 0.00 68 1012.7
20260504195507 55 283 4.3 6.1 0.00 0.00 0.00 66 1012.6
20260504195007 55 297 2.6 4.3 0.00 0.00 0.00 66 1012.3
20260504194507 55 302 2.6 4.3 0.00 0.00 0.00 67 1012.2
20260504194007 55 297 4.3 7.0 0.00 0.00 0.00 66 1012.2
20260504193507 55 300 3.5 6.1 0.00 0.00 0.00 67 1011.9
20260504193007 55 306 2.6 4.3 0.00 0.00 0.00 66 1011.7
20260504192507 55 307 2.6 4.3 0.00 0.00 0.00 66 1011.7
20260504191007 56 308 4.3 6.1 0.00 0.00 0.00 63 1011.8
20260504190507 57 308 4.3 7.0 0.00 0.00 0.00 61 1011.8
20260504190007 58 306 5.2 10.4 0.00 0.00 0.00 59 1011.7
20260504185507 58 306 7.0 11.3 0.00 0.00 0.00 58 1011.7
20260504185007 58 296 7.0 11.3 0.00 0.00 0.00 57 1011.7
20260504184508 58 294 5.2 10.4 0.00 0.00 0.00 59 1011.7
20260504183507 59 311 6.1 10.4 0.00 0.00 0.00 57 1011.6
20260504183007 60 321 7.8 12.2 0.00 0.00 0.00 55 1011.6
20260504182506 60 317 9.6 12.2 0.00 0.00 0.00 54 1011.5
20260504182006 60 317 9.6 14.8 0.00 0.00 0.00 55 1011.4
20260504181508 61 320 10.4 14.8 0.00 0.00 0.00 53 1011.4
20260504181007 61 321 10.4 13.0 0.00 0.00 0.00 53 1011.3
20260504180507 61 321 9.6 14.8 0.00 0.00 0.00 54 1011.3
20260504180008 62 318 9.6 13.0 0.00 0.00 0.00 52 1011.2
20260504175506 62 312 11.3 15.6 0.00 0.00 0.00 51 1011.1
20260504174507 62 285 9.6 13.9 0.00 0.00 0.00 51 1011.2
20260504174007 62 328 7.8 13.0 0.00 0.00 0.00 51 1011.1
20260504173507 63 306 8.7 12.2 0.00 0.00 0.00 51 1011.2
20260504173007 63 296 7.8 13.0 0.00 0.00 0.00 53 1011.0
20260504172007 63 311 11.3 15.6 0.00 0.00 0.00 50 1011.0
20260504171507 63 314 9.6 13.0 0.00 0.00 0.00 49 1011.0
20260504151007 67 245 7.8 15.6 0.00 0.00 0.00 35 1010.7
20260504150506 67 226 7.8 14.8 0.00 0.00 0.00 35 1010.7
20260504141007 68 236 7.0 12.2 0.00 0.00 0.00 37 1011.0
20260504130507 66 226 6.1 17.4 0.00 0.00 0.00 43 1011.2
20260504100508 60 233 1.7 7.8 0.00 0.00 0.00 63 1012.6
20260504082007 53 163 2.6 5.2 0.00 0.00 0.00 81 1012.7
20260504081508 53 196 2.6 5.2 0.00 0.00 0.00 81 1012.8
20260504080508 53 188 4.3 7.0 0.00 0.00 0.00 81 1012.7
20260504050508 51 142 0.0 1.7 0.00 0.13 0.00 82 1011.4
20260504050008 51 192 0.0 1.7 0.00 0.13 0.00 82 1011.4
20260504045507 51 191 1.7 2.6 0.00 0.13 0.00 83 1011.3
20260504045007 50 194 0.0 0.0 0.00 0.13 0.00 84 1011.3
20260504044007 50 323 0.0 0.0 0.00 0.13 0.00 85 1011.4
20260504043508 49 323 0.0 0.0 0.00 0.13 0.00 85 1011.4
20260504043008 49 323 0.0 0.0 0.00 0.13 0.00 84 1011.4
20260504042507 50 323 0.0 0.0 0.00 0.13 0.00 84 1011.4
20260504042008 50 323 0.0 0.0 0.00 0.13 0.00 83 1011.4
20260504041508 50 323 0.0 0.0 0.00 0.13 0.00 83 1011.4
20260504040508 50 323 0.0 0.0 0.00 0.13 0.00 83 1011.4
20260504040008 50 323 0.0 0.0 0.00 0.13 0.00 82 1011.5
20260504035508 50 323 0.0 0.0 0.00 0.13 0.00 81 1011.5
20260504035007 51 323 0.0 0.0 0.00 0.13 0.00 82 1011.4
20260504034508 50 323 0.0 0.0 0.00 0.13 0.00 82 1011.5
20260504034007 50 323 0.0 0.0 0.00 0.13 0.00 81 1011.5